Metcalfe, MS

7:49 AM CDT on July 29, 2016 (GMT -0500)
Mid Delta Regional

Weather History for KGLH - March, 2013

Change the Weather History Date:

Saturday, March 2, 2013

  Actual Average Record
Temperature  
Mean Temperature 32 °F 51 °F  
Max Temperature 39 °F 61 °F 82 °F (1945)
Min Temperature 25 °F 41 °F 19 °F (1980)
Degree Days  
Heating Degree Days 33 14  
Month to date heating degree days 62 29  
Since 1 July heating degree days 2065 2338  
Cooling Degree Days 0 0  
Month to date cooling degree days 0 0  
Year to date cooling degree days 10 5  
Moisture  
Dew Point 26 °F    
Average Humidity 72    
Maximum Humidity 84    
Minimum Humidity 59    
Precipitation  
Precipitation 0.00 in 0.12 in 2.15 in (1934)
Month to date precipitation 0.00 0.25  
Year to date precipitation 12.46 10.24  
Sea Level Pressure  
Sea Level Pressure 30.27 in    
Wind  
Wind Speed 10 mph (NNW)    
Max Wind Speed 20 mph    
Max Gust Speed 24 mph    
Visibility 10 miles    
Events      
T = Trace of Precipitation, MM = Missing Value Source: NWS Daily Summary

Daily Weather History Graph

Daily Weather History Graph

Search for Another Location

Airport or City:

Trip Planner

Search our weather history database for the weather conditions in past years. The results will help you decide how hot, cold, wet, or windy it might be!

Date:

Astronomy

Mar. 02, 2013 Rise Set
Actual Time 6:30 AM CST 6:01 PM CST
Civil Twilight 6:05 AM CST 6:26 PM CST
Nautical Twilight 5:37 AM CST 6:55 PM CST
Astronomical Twilight 5:08 AM CST 7:24 PM CST
Moon 11:22 PM CST (3/2) 9:16 AM CST (3/2)
Length of Visible Light 12h 20m
Length of Day
11h 31m
Waning Gibbous, 74% of the Moon is Illuminated
Mar 2
Waning Gibbous
Mar 4
Last Quarter
Mar 11
New
Mar 19
First Quarter
Mar 27
Full

Hourly Weather History & Observations

Time (CST) Temp. Windchill Dew Point Humidity Pressure Visibility Wind Dir Wind Speed Gust Speed Precip Events Conditions
12:53 AM 35.1 °F 29.3 °F 28.9 °F 78% 30.22 in 10.0 mi North 6.9 mph - N/A   Overcast
1:53 AM 35.1 °F 27.9 °F 28.0 °F 76% 30.23 in 10.0 mi North 9.2 mph - N/A   Overcast
2:53 AM 35.1 °F 27.9 °F 25.0 °F 67% 30.22 in 10.0 mi NNW 9.2 mph - N/A   Overcast
3:53 AM 34.0 °F 27.2 °F 25.0 °F 70% 30.22 in 10.0 mi NNW 8.1 mph - N/A   Overcast
4:53 AM 33.8 °F 25.3 °F 24.8 °F 70% 30.20 in 10.0 mi NNW 11.5 mph - N/A   Mostly Cloudy
5:53 AM 34.0 °F 27.2 °F 25.0 °F 70% 30.25 in 10.0 mi NW 8.1 mph - N/A   Overcast
6:53 AM 34.0 °F 25.5 °F 26.1 °F 73% 30.26 in 10.0 mi NNW 11.5 mph - N/A   Overcast
7:53 AM 36.0 °F 28.0 °F 27.0 °F 70% 30.27 in 10.0 mi North 11.5 mph - N/A   Mostly Cloudy
8:53 AM 36.0 °F 26.7 °F 27.0 °F 70% 30.30 in 10.0 mi NNW 15.0 mph - N/A   Overcast
9:53 AM 37.0 °F 28.9 °F 27.0 °F 67% 30.30 in 10.0 mi NNW 12.7 mph 20.7 mph N/A   Overcast
10:53 AM 37.0 °F 28.1 °F 26.1 °F 65% 30.30 in 10.0 mi NNW 15.0 mph - N/A   Overcast
11:53 AM 37.0 °F 28.9 °F 26.1 °F 65% 30.29 in 10.0 mi NW 12.7 mph - N/A   Overcast
12:49 PM 35.6 °F 25.9 °F 26.6 °F 70% 30.25 in 10.0 mi North 16.1 mph - N/A   Overcast
12:53 PM 36.0 °F 26.0 °F 26.1 °F 67% 30.28 in 10.0 mi North 17.3 mph - N/A   Overcast
1:20 PM 37.4 °F 28.9 °F 26.6 °F 65% 30.24 in 10.0 mi NNW 13.8 mph - N/A   Overcast
1:35 PM 37.4 °F 28.5 °F 26.6 °F 65% 30.24 in 10.0 mi NNW 15.0 mph - N/A   Overcast
1:53 PM 37.0 °F 27.7 °F 25.0 °F 62% 30.27 in 10.0 mi North 16.1 mph - N/A   Overcast
2:53 PM 37.0 °F 28.9 °F 25.0 °F 62% 30.27 in 10.0 mi NNW 12.7 mph - N/A   Overcast
3:53 PM 37.9 °F 30.5 °F 26.1 °F 62% 30.27 in 10.0 mi North 11.5 mph - N/A   Overcast
4:53 PM 37.0 °F 27.7 °F 24.1 °F 59% 30.28 in 10.0 mi NNW 16.1 mph - N/A   Overcast
5:53 PM 35.1 °F 27.4 °F 24.1 °F 64% 30.29 in 10.0 mi NNW 10.4 mph - N/A   Mostly Cloudy
6:53 PM 32.0 °F 25.6 °F 24.8 °F 75% 30.27 in 10.0 mi North 6.9 mph - N/A   Partly Cloudy
7:53 PM 30.9 °F 26.2 °F 24.1 °F 76% 30.31 in 10.0 mi NE 4.6 mph - N/A   Clear
8:53 PM 30.0 °F 26.5 °F 24.1 °F 79% 30.31 in 10.0 mi NE 3.5 mph - N/A   Clear
9:53 PM 30.0 °F - 23.0 °F 75% 30.32 in 10.0 mi Calm Calm - N/A   Clear
10:53 PM 27.0 °F - 23.0 °F 85% 30.32 in 10.0 mi Calm Calm - N/A   Clear
11:53 PM 27.0 °F - 24.1 °F 89% 30.30 in 10.0 mi Calm Calm - N/A   Clear